Powrót do katalogu

BREEZE-M DEB

LostHEO
NORAD 34228·DEBRIS·🇷🇺 Russia

Wystrzelony Feb 28, 2006 z Baikonur Cosmodrome

Loading…

Następne Przeloty (najbliższe 24 godziny)

TLE

NieaktualneSource: Space-Track

Epoka: Dec 11, 2011, 22:50 UTC

1 34228U 06006AT  11345.95198586  .00078973  00000-0  27303-1 0  9996
2 34228 051.8771 203.5319 4569917 176.8325 188.6531 06.26437021 76743

Śledź BREEZE-M DEB w czasie rzeczywistym z AllMySat

Download on the App Store